Weather in Zelenaya Roshcha

Russia / Ulyanovsk Oblast     54°09′33″N   48°01′21″E
temp.,
°C
wind,
m/s
gust,
m/s
humid.,
%
clouds,
%
prec.,
mm/h
press.,
hPa
HPBL,
m
18 january, tue
tue1801:00−6ssw91791100 0.1 1001715
04:00−4ssw81692100 0.3 1001695
07:00−3ssw81689100 0.1 1001644
10:00−3ssw81591100 0.1 1002582
13:00−2s81593100 0.2 1003667
16:00−1ssw71491100 0.4 1005745
19:00−1ssw81489100 0.0 1007715
22:00−2ssw81491100 0.1 1009613
19 january, wed
wed1901:00−2ssw6139299 0.1 1011568
04:00−3ssw6139295 0.2 1012504
07:00−5ssw5119470 0.1 1013284
10:00−4ssw4109585 0.1 1014297
13:00−3sw379693 0.1 1015307
16:00−3s119872 0.7 101639
19:00−5sw1397100 0.6 101792
22:00−10ssw349741 0.7 101849
20 january, thu
thu2001:00
04:00−13sw369989 0.0 102174
07:00−13sw349765 0.0 102139
10:00
13:00−9ssw410935 0.0 1022230
16:00−10ssw35945 0.0 102265
19:00−15ssw339845 0.0 102339
22:00−16ssw359841 0.0 102455
21 january, fri
fri2101:00−13ssw3109991 0.0 1024135
04:00−10s279897 0.1 1024159
07:00−6s489595 0.0 1023275
10:00−11s399762 0.1 1025137
13:00−8s4119564 0.0 1024317
16:00−8sse51194100 0.0 1024355
19:00−12sse389765 0.0 1025126
22:00−12sse51296100 0.0 1024249
22 january, sat
sat2201:00−11sse51393100 0.0 1025303
04:00−11sse51391100 0.0 1025302
07:00−12sse51294100 0.0 1025272
10:00−12sse51293100 0.0 1026299
13:00−10sse51292100 0.0 1027368
16:00−9sse51292100 0.0 1027372
19:00−10sse41191100 0.0 1028321
22:00−10sse41288100 0.0 1028340